When you browse on this site, cookies collect data to enhance your experience and personalize the content and advertising you see.
Visit our Privacy Policy to learn more. By continuing to use the site, you agree to this use of cookies and data.
  • In Hungary
  • List of Countries
  • For 7 days
  • Water Temperature
  • Satellite Maps
  • Weather Map
  • News
  • Weather Widgets
  • user-avatar
    Login

    Hourly Weather Ayacucho

    Today, 21 January, Monday

    Time Temperature Precipitation Wind Pressure Humidity
    00:00 +12°C° 0.6 mm 0 mps 542 mmHg 82%
    01:00 +12°C° 0.6 mm 0 mps 542 mmHg 83%
    02:00 +11°C° 0.4 mm 0 mps 542 mmHg 84%
    03:00 +11°C° 0.4 mm 0 mps 541 mmHg 85%
    04:00 +11°C° 0.4 mm 0 mps 541 mmHg 85%
    05:00 +12°C° 0.1 mm 0 mps 541 mmHg 82%
    06:00 +12°C° 0.1 mm 0 mps 542 mmHg 79%
    07:00 +13°C° 0.1 mm 0 mps 542 mmHg 76%
    08:00 +15°C° 0 mm 1 mps 543 mmHg 68%
    09:00 +18°C° 0 mm 1 mps 544 mmHg 61%
    10:00 +19°C° 0 mm 2 mps 544 mmHg 54%
    11:00 +20°C° 0 mm 2 mps 544 mmHg 50%
    12:00 +21°C° 0 mm 3 mps 544 mmHg 47%
    13:00 +22°C° 0 mm 4 mps 545 mmHg 44%
    14:00 +22°C° 0 mm 4 mps 544 mmHg 44%
    15:00 +22°C° 0 mm 4 mps 544 mmHg 44%
    16:00 +22°C° 0 mm 4 mps 544 mmHg 44%
    17:00 +20°C° 0 mm 3 mps 543 mmHg 51%
    18:00 +17°C° 0 mm 3 mps 542 mmHg 59%
    19:00 +15°C° 0 mm 2 mps 541 mmHg 66%
    20:00 +14°C° 0 mm 2 mps 542 mmHg 71%
    21:00 +14°C° 0 mm 2 mps 542 mmHg 75%
    22:00 +13°C° 0 mm 1 mps 542 mmHg 80%
    23:00 +12°C° 0 mm 1 mps 542 mmHg 82%

    Tomorrow, 22 January, Tuesday

    Time Temperature Precipitation Wind Pressure Humidity
    00:00 +12°C° 0 mm 1 mps 541 mmHg 84%
    01:00 +10°C° 0 mm 0 mps 541 mmHg 86%
    02:00 +10°C° 0.1 mm 0 mps 541 mmHg 86%
    03:00 +10°C° 0.1 mm 0 mps 540 mmHg 86%
    04:00 +10°C° 0.1 mm 0 mps 540 mmHg 86%
    05:00 +11°C° 0.1 mm 0 mps 541 mmHg 82%
    06:00 +12°C° 0.1 mm 0 mps 542 mmHg 77%
    07:00 +13°C° 0.1 mm 0 mps 542 mmHg 73%
    08:00 +15°C° 0.1 mm 1 mps 543 mmHg 67%
    09:00 +16°C° 0.1 mm 2 mps 543 mmHg 61%
    10:00 +18°C° 0.1 mm 2 mps 544 mmHg 55%
    11:00 +19°C° 0.1 mm 3 mps 544 mmHg 53%
    12:00 +19°C° 0.1 mm 4 mps 544 mmHg 51%
    13:00 +20°C° 0.1 mm 4 mps 544 mmHg 49%
    14:00 +20°C° 0 mm 4 mps 543 mmHg 50%
    15:00 +20°C° 0 mm 4 mps 543 mmHg 51%
    16:00 +20°C° 0 mm 4 mps 542 mmHg 52%
    17:00 +18°C° 0 mm 3 mps 542 mmHg 59%
    18:00 +16°C° 0 mm 3 mps 542 mmHg 66%
    19:00 +14°C° 0 mm 2 mps 541 mmHg 73%
    20:00 +14°C° 0 mm 2 mps 542 mmHg 76%
    21:00 +13°C° 0 mm 2 mps 542 mmHg 79%
    22:00 +13°C° 0 mm 1 mps 542 mmHg 82%
    23:00 +13°C° 0.2 mm 1 mps 542 mmHg 83%

    Day after tomorrow, 23 January, Wednesday

    Time Temperature Precipitation Wind Pressure Humidity
    00:00 +13°C° 0.2 mm 1 mps 542 mmHg 84%
    01:00 +12°C° 0.2 mm 1 mps 542 mmHg 85%
    02:00 +12°C° 0.4 mm 1 mps 541 mmHg 85%
    03:00 +11°C° 0.4 mm 0 mps 541 mmHg 85%
    04:00 +11°C° 0.4 mm 0 mps 541 mmHg 85%
    05:00 +11°C° 0.4 mm 0 mps 541 mmHg 83%
    06:00 +12°C° 0.4 mm 0 mps 542 mmHg 81%
    07:00 +12°C° 0.4 mm 0 mps 542 mmHg 78%
    08:00 +14°C° 0.3 mm 1 mps 543 mmHg 73%
    09:00 +15°C° 0.3 mm 2 mps 543 mmHg 68%
    10:00 +16°C° 0.3 mm 2 mps 544 mmHg 63%
    11:00 +17°C° 0.2 mm 3 mps 544 mmHg 60%
    12:00 +18°C° 0.2 mm 3 mps 544 mmHg 56%
    13:00 +20°C° 0.2 mm 4 mps 544 mmHg 53%
    14:00 +19°C° 0.1 mm 4 mps 543 mmHg 53%
    15:00 +19°C° 0.1 mm 4 mps 543 mmHg 53%
    16:00 +19°C° 0.1 mm 4 mps 542 mmHg 54%
    17:00 +17°C° 0 mm 3 mps 542 mmHg 62%
    18:00 +14°C° 0 mm 3 mps 541 mmHg 70%
    19:00 +14°C° 0 mm 2 mps 541 mmHg 78%
    20:00 +13°C° 0 mm 2 mps 541 mmHg 81%
    21:00 +13°C° 0 mm 1 mps 541 mmHg 84%
    22:00 +12°C° 0 mm 1 mps 542 mmHg 87%
    23:00 +12°C° 0.1 mm 1 mps 542 mmHg 87%

    24 January, Thursday

    Time Temperature Precipitation Wind Pressure Humidity
    00:00 +11°C° 0.1 mm 0 mps 541 mmHg 87%
    01:00 +11°C° 0.1 mm 0 mps 541 mmHg 87%
    02:00 +11°C° 0.2 mm 0 mps 540 mmHg 87%
    03:00 +11°C° 0.2 mm 0 mps 540 mmHg 86%
    04:00 +10°C° 0.2 mm 0 mps 540 mmHg 86%
    05:00 +12°C° 0.1 mm 1 mps 541 mmHg 83%
    06:00 +13°C° 0.1 mm 1 mps 541 mmHg 80%
    07:00 +13°C° 0.1 mm 1 mps 542 mmHg 77%
    08:00 +15°C° 0.1 mm 1 mps 543 mmHg 70%
    09:00 +16°C° 0.1 mm 2 mps 544 mmHg 63%
    10:00 +18°C° 0.1 mm 2 mps 545 mmHg 57%
    11:00 +19°C° 0.1 mm 3 mps 544 mmHg 54%
    12:00 +20°C° 0.1 mm 3 mps 544 mmHg 52%
    13:00 +21°C° 0.1 mm 4 mps 544 mmHg 49%
    14:00 +21°C° 0 mm 4 mps 544 mmHg 50%
    15:00 +20°C° 0 mm 4 mps 543 mmHg 51%
    16:00 +20°C° 0 mm 4 mps 543 mmHg 52%
    17:00 +18°C° 0 mm 3 mps 542 mmHg 60%
    18:00 +16°C° 0 mm 3 mps 542 mmHg 68%
    19:00 +14°C° 0 mm 2 mps 541 mmHg 77%
    20:00 +14°C° 0 mm 2 mps 541 mmHg 80%
    21:00 +13°C° 0 mm 1 mps 542 mmHg 84%
    22:00 +12°C° 0 mm 1 mps 542 mmHg 87%
    23:00 +12°C° 0.1 mm 1 mps 542 mmHg 87%

    25 January, Friday

    Time Temperature Precipitation Wind Pressure Humidity
    00:00 +12°C° 0.1 mm 1 mps 541 mmHg 87%
    01:00 +12°C° 0.1 mm 1 mps 541 mmHg 87%
    02:00 +12°C° 0.1 mm 1 mps 540 mmHg 87%
    03:00 +11°C° 0.1 mm 0 mps 540 mmHg 87%
    04:00 +10°C° 0.1 mm 0 mps 540 mmHg 87%
    05:00 +12°C° 0.1 mm 1 mps 541 mmHg 82%
    06:00 +13°C° 0.1 mm 1 mps 541 mmHg 78%
    07:00 +14°C° 0.1 mm 1 mps 542 mmHg 73%
    08:00 +15°C° 0.2 mm 1 mps 543 mmHg 69%
    09:00 +16°C° 0.2 mm 2 mps 543 mmHg 64%
    10:00 +18°C° 0.2 mm 2 mps 544 mmHg 59%
    11:00 +18°C° 0.3 mm 3 mps 543 mmHg 57%
    12:00 +19°C° 0.3 mm 3 mps 543 mmHg 55%
    13:00 +20°C° 0.3 mm 4 mps 543 mmHg 53%
    14:00 +20°C° 0.2 mm 4 mps 542 mmHg 53%
    15:00 +20°C° 0.2 mm 3 mps 542 mmHg 54%
    16:00 +19°C° 0.2 mm 3 mps 541 mmHg 55%
    17:00 +18°C° 0.1 mm 3 mps 541 mmHg 61%
    18:00 +16°C° 0.1 mm 2 mps 541 mmHg 68%
    19:00 +15°C° 0.1 mm 1 mps 541 mmHg 75%
    20:00 +14°C° 0.1 mm 1 mps 541 mmHg 78%
    21:00 +14°C° 0.1 mm 1 mps 541 mmHg 81%
    22:00 +13°C° 0.1 mm 1 mps 542 mmHg 84%
    23:00 +13°C° 0.1 mm 1 mps 541 mmHg 84%

    26 January, Saturday

    Time Temperature Precipitation Wind Pressure Humidity
    00:00 +13°C° 0.1 mm 1 mps 541 mmHg 84%
    01:00 +13°C° 0.1 mm 1 mps 541 mmHg 84%
    02:00 +12°C° 0.1 mm 1 mps 540 mmHg 84%
    03:00 +12°C° 0.1 mm 1 mps 540 mmHg 85%
    04:00 +11°C° 0.1 mm 0 mps 539 mmHg 85%
    05:00 +12°C° 0 mm 0 mps 540 mmHg 80%
    06:00 +13°C° 0 mm 0 mps 541 mmHg 76%
    07:00 +13°C° 0 mm 0 mps 542 mmHg 71%
    08:00 +16°C° 0 mm 1 mps 543 mmHg 65%
    09:00 +18°C° 0 mm 2 mps 544 mmHg 58%
    10:00 +20°C° 0 mm 2 mps 544 mmHg 52%
    11:00 +21°C° 0.2 mm 3 mps 544 mmHg 48%
    12:00 +22°C° 0.2 mm 3 mps 544 mmHg 44%
    13:00 +23°C° 0.2 mm 4 mps 544 mmHg 40%
    14:00 +23°C° 0 mm 4 mps 543 mmHg 39%
    15:00 +23°C° 0 mm 4 mps 543 mmHg 39%
    16:00 +23°C° 0 mm 4 mps 543 mmHg 39%
    17:00 +20°C° 0 mm 3 mps 542 mmHg 47%
    18:00 +18°C° 0 mm 3 mps 541 mmHg 55%
    19:00 +15°C° 0 mm 2 mps 541 mmHg 63%
    20:00 +15°C° 0 mm 2 mps 541 mmHg 68%
    21:00 +14°C° 0 mm 2 mps 541 mmHg 73%
    22:00 +13°C° 0 mm 1 mps 541 mmHg 78%
    23:00 +12°C° 0 mm 1 mps 541 mmHg 80%
    Show more